Regional Weather Roundup
Issued by NWS Upton, NY

Current Version | Previous Version | Graphics & Text | Print | Product List | Glossary Off
Versions: 1 2 3 4 5 6 7 8 9 10 11 12 13 14 15 16 17 18 19 20 21 22 23 24 25 26 27 28 29 30 31 32 33 34 35 36 37 38 39 40 41 42 43 44 45 46 47 48 49 50

000
ASUS41 KOKX 302207
RWROKX

REGIONAL WEATHER ROUNDUP
NATIONAL WEATHER SERVICE NEW YORK NY
600 PM EDT MON MAR 30 2015

NOTE: "FAIR" INDICATES FEW OR NO CLOUDS BELOW 12,000 FEET WITH NO
SIGNIFICANT WEATHER AND/OR OBSTRUCTIONS TO VISIBILITY.

NYZ071-072-176-178-NJZ106-104-302300-
NEW YORK CITY METRO AREA


CITY           SKY/WX    TMP DP  RH WIND       PRES   REMARKS
CENTRAL PARK   CLOUDY    51  24  34 MISG      29.80S
LAGUARDIA APRT CLOUDY    51  25  36 NW18G29   29.78R
KENNEDY INTL   PTSUNNY   53  24  32 W20G25    29.80R
NEWARK/LIBERTY PTSUNNY   53  23  31 W23G32    29.78S
BRNX BOT. GARD   N/A    N/A N/A N/A W16       29.78F
TETERBORO      PTSUNNY   51  27  39 W13G22    29.77S
$$

NYZ177-179-078>081-302300-
LONG ISLAND NEW YORK

CITY           SKY/WX    TMP DP  RH WIND       PRES   REMARKS
FARMINGDALE    CLOUDY    51  26  37 W12G23    29.78R
ISLIP          PTSUNNY   50  27  40 W17G25    29.76R
SHIRLEY        PTSUNNY   50  29  44 NW16G22   29.77R
WESTHAMPTON    MOSUNNY   46  32  58 SW9       29.78R
MONTAUK POINT    N/A     46  36  68 SW3       29.76R
$$

NYZ052-065-067-302300-
HUDSON VALLEY

CITY           SKY/WX    TMP DP  RH WIND       PRES   REMARKS
WHITE PLAINS   PTSUNNY   48  26  42 W9        29.76R
NEWBURGH       PTSUNNY   46  28  49 W17G29    29.76R
MONTGOMERY     CLOUDY    48  25  40 NW10      29.75R
POUGHKEEPSIE   CLOUDY    50  25  37 W14G22    29.75R
ALBANY         PTSUNNY   43  28  55 W18G24    29.74R
$$

NJZ001-105-106-008-010-013-015-019>022-104-302300-
NEW JERSEY

CITY           SKY/WX    TMP DP  RH WIND       PRES   REMARKS
NEWARK/LIBERTY PTSUNNY   53  23  31 W23G32    29.78S
TETERBORO      PTSUNNY   51  27  39 W13G22    29.77S
CALDWELL       PTSUNNY   51  24  34 NW14G25   29.78S
MORRISTOWN     PTSUNNY   52  23  32 NW18G30   29.79R
SOMERVILLE     MOSUNNY   53  23  31 MISG      29.78R
SUSSEX         PTSUNNY   49  24  37 MISG      29.77S
ANDOVER          N/A     49  22  34 MISG      29.77S
TRENTON        PTSUNNY   53  24  32 NW13G21   29.80R
MILLVILLE      PTSUNNY   57  30  35 NW10      29.83R
ATLANTIC CITY  CLOUDY    56  28  34 W12G21    29.82R
WRIGHTSTOWN    CLOUDY    54  28  36 NW14      29.79R
TOMS RIVER     PTSUNNY   54  27  35 W10G21    29.81R
BELMAR         PTSUNNY   54  28  37 NW13      29.80R
$$

PAZ047>061-062-071-302300-
EASTERN PENNSYLVANIA

CITY           SKY/WX    TMP DP  RH WIND       PRES   REMARKS
PHILADELPHIA   MOSUNNY   56  22  26 NW18G30   29.83R
ALLENTOWN      CLOUDY    53  25  33 W14G23    29.80R
SCRANTON       PTSUNNY   50  23  34 W15G26    29.77R
$$

CTZ002-004>006-009-010-012-RIZ004-006-007-MAZ004-011-015-302300-
SOUTHERN NEW ENGLAND
 IN CT

CITY           SKY/WX    TMP DP  RH WIND       PRES   REMARKS
BRADLEY INTL   PTSUNNY   47  27  45 W12       29.73R
HARTFORD       CLOUDY    47  26  44 W13G18    29.75R
DANBURY        CLOUDY    47  24  40 W9        29.76R
WTRBRY/OXFORD  MOSUNNY   45  27  49 NW6       29.75S
BRIDGEPORT     CLOUDY    51  30  44 W10       29.76R
MERIDEN        CLOUDY    48  26  42 W8        29.75R
NEW HAVEN      PTSUNNY   49  28  44 NW9       29.75R
CHESTER        FAIR      46  32  57 W5        29.74S
GROTON         MOSUNNY   44  34  67 CALM      29.75R
WILLIMANTIC    CLOUDY    46  31  55 W3        29.74R

 IN RI

CITY           SKY/WX    TMP DP  RH WIND       PRES   REMARKS
PROVIDENCE     PTSUNNY   48  30  49 W8        29.73R
BLOCK ISLAND   MOSUNNY   39  34  81 S12       29.75S WCI  32
WESTERLY       CLOUDY    42  33  70 SW6       29.76R

 IN MA

CITY           SKY/WX    TMP DP  RH WIND       PRES   REMARKS
BOSTON         PTSUNNY   44  31  60 W12G21    29.72S
WORCESTER      CLOUDY    40  27  59 W16G22    29.68S WCI  31
WESTFIELD      PTSUNNY   47  27  45 W7        29.72S
PROVINCETOWN   CLOUDY    39  34  81 SW9       29.74S WCI  33
NANTUCKET      CLOUDY    38  34  85 SW10      29.76F WCI  31
$$

ANZ330-335-338-340-345-350-353-355-302300-
COASTAL MARINE OBSERVATIONS


STATION/POSITION TIME  SKY/WX   TEMP    WIND        PRES    VSBY  WAVE
                                AIR SEA DIR/SP/G                  HT/PER
                 (UTC)          (F)     (DEG/KT/KT) (MB)    (MI)  (FT/S)
NY HARB ENTRANCE 2150            44 39  290/  8/ 10 1008.6          4/ 7
4S FIRE IS       2103               37                N/A           5/ 7
20S FIRE ISLAND  2050               39              1008.8          6/ 7
23SW MTP         2150                                 N/A           6/ 7
HUDSON CANYON    NOT AVBL
EXECUTION ROCKS  NOT AVBL
WESTERN LI SOUND NOT AVBL
CENTRAL LI SOUND NOT AVBL
EASTERN LI SOUND NOT AVBL
ROBBINS REEF     2100            50     300/ 20/ 27 1007.2
$$


>>>>>>>>>>>>>>>>>>>>>>>>>>>> KEY <<<<<<<<<<<<<<<<<<<<<<<<<<<
>                                                          <
>     SKY/WX - SKY CONDITION/PRESENT WEATHER               <
>     TMP    - TEMPERATURE IN FAHRENHEIT                   <
>     DP     - DEWPOINT IN FAHRENHEIT                      <
>     RH     - RELATIVE HUMIDITY IN PERCENT                <
>     WIND   - DIRECTION AND SPEED IN MPH                  <
>     PRES   - MEAN SEA LEVEL PRESSURE IN INCHES OF HG     <
>     WCI    - WIND CHILL INDEX                            <
>     VSB    - VISIBILITY IN MILES                         <
>     HX     - HEAT INDEX                                  <
>     TC     - TEMPERATURE IN CELSIUS                      <
>     VRB    - VARIABLE WIND DIRECTION                     <
>                                                          <
>>>>>>>>>>>>>>>>>>>>>>>>>>>> KEY <<<<<<<<<<<<<<<<<<<<<<<<<<<




USA.gov is the U.S. government's official web portal to all federal, state and local government web resources and services.